CW2098 Weather Reports


Display with metric or nautical units.
time (UTC)temp
F
wind
direction
speed
MPH
gust
MPH
rain 1hr
in
rain 24hr
in
rain mn
in
humidity
%
barometer
mb
20260902095254 80 48 2.0 9.0 0.00 0.00 0.00 96 1001.7
20260902094252 80 47 2.0 6.0 0.00 0.00 0.00 96 1001.4
20260902093251 79 47 2.0 9.0 0.00 0.00 0.00 96 1001.2
20260902092729 0 46 1.0 3.0 0.00 0.00 0.00
20260902091249 80 27 3.0 9.0 0.00 0.00 0.00 96 1001.3
20260902090654 80 321 8.0 15.0 0.00 0.00 0.00 95 1001.3
20260902085217 80 309 11.0 16.0 0.00 0.00 0.00 95 1001.0
20260902084218 80 306 11.0 16.0 0.00 0.00 0.00 95 1001.1
20260902083218 80 302 5.0 15.0 0.00 0.00 0.00 95 1001.3
20260902082218 80 317 2.0 10.0 0.00 0.00 0.00 95 1001.3
20260902081215 80 321 2.0 7.0 0.00 0.00 0.00 94 1001.4
20260902080216 80 338 3.0 5.0 0.00 0.00 0.00 94 1001.6
20260902075215 81 24 3.0 15.0 0.00 0.00 0.00 93 1001.7
20260902074216 81 32 2.0 3.0 0.00 0.00 0.00 93 1001.6
20260902073653 81 35 2.0 3.0 0.00 0.00 0.00 93 1001.7
20260902072215 81 36 2.0 5.0 0.00 0.00 0.00 93 1001.9
20260902071216 81 51 2.0 5.0 0.00 0.00 0.00 93 1001.9
20260902070216 81 17 2.0 4.0 0.00 0.00 0.00 92 1001.6
20260902065214 81 41 2.0 3.0 0.00 0.00 0.00 92 1001.7
20260902064210 82 42 2.0 3.0 0.00 0.00 0.00 92 1001.7
20260902063211 81 42 2.0 4.0 0.00 0.00 0.00 92 1001.7
20260902062210 81 40 2.0 3.0 0.00 0.00 0.00 92 1001.4
20260902061648 81 35 2.0 4.0 0.00 0.00 0.00 92 1001.5
20260902060211 81 36 2.0 5.0 0.00 0.00 0.00 92 1001.6
20260902055211 82 50 2.0 4.0 0.00 0.00 0.00 92 1001.8
20260902054208 82 49 2.0 5.0 0.00 0.00 0.00 92 1001.7
20260902053218 82 33 2.0 5.0 0.00 0.00 0.00 92 1001.8
20260902052205 82 45 2.0 4.0 0.00 0.00 0.00 92 1001.8
20260902051206 82 44 2.0 3.0 0.00 0.00 0.00 92 1001.7
20260902050648 82 61 2.0 4.0 0.00 0.00 0.00 92 1001.8
20260902045205 82 43 2.0 4.0 0.00 0.00 0.00 92 1002.0
20260902044206 82 17 2.0 3.0 0.00 0.00 0.00 92 1002.0
20260902043206 82 43 2.0 4.0 0.00 0.00 0.00 92 1002.1
20260902042205 82 48 2.0 4.0 0.00 0.00 0.00 92 1002.2
20260902041645 82 46 2.0 5.0 0.00 0.00 0.00 91 1002.1
20260902040205 82 43 2.0 4.0 0.00 0.00 0.00 91 1002.3
20260902035205 82 47 2.0 4.0 0.00 0.00 0.00 91 1002.2
20260902034205 82 38 2.0 4.0 0.00 0.00 0.00 91 1002.1
20260902033201 82 61 2.0 4.0 0.00 0.00 0.00 91 1002.3
20260902032202 82 80 2.0 4.0 0.00 0.00 0.00 91 1002.6
20260902031644 82 27 2.0 4.0 0.00 0.00 0.00 91 1002.6
20260902030644 82 30 2.0 4.0 0.00 0.00 0.00 91 1002.7
20260902025202 82 58 2.0 4.0 0.00 0.00 0.00 91 1002.8
20260902024201 82 32 3.0 7.0 0.00 0.00 0.00 91 1002.8
20260902023642 82 28 3.0 5.0 0.00 0.00 0.00 91 1002.8
20260902022200 82 28 3.0 6.0 0.00 0.00 0.00 91 1002.9
20260902021646 82 54 3.0 6.0 0.00 0.00 0.00 91 1002.8
20260902020645 82 64 3.0 5.0 0.00 0.00 0.00 91 1002.8
20260902015200 82 260 3.0 5.0 0.00 0.00 0.00 91 1003.0
20260902014632 82 26 3.0 5.0 0.00 0.00 0.00 90 1002.9
20260902013213 82 24 3.0 5.0 0.00 0.00 0.00 90 1002.7
20260902012200 82 43 3.0 6.0 0.00 0.00 0.00 90 1002.5
20260902011201 82 43 3.0 5.0 0.00 0.00 0.00 90 1002.3
20260902010158 82 42 3.0 6.0 0.00 0.00 0.00 90 1002.2
20260902005159 82 48 3.0 5.0 0.00 0.00 0.00 89 1001.9
20260902004159 82 40 3.0 6.0 0.00 0.00 0.00 89 1002.0
20260902003636 82 80 3.0 7.0 0.00 0.00 0.00 89 1002.1
20260902002159 82 40 4.0 7.0 0.00 0.00 0.00 88 1002.2
20260902001212 82 30 4.0 8.0 0.00 0.00 0.00 88 1002.3
20260902000159 82 27 4.0 8.0 0.00 0.00 0.00 87 1002.3
20260901235159 83 9 4.0 7.0 0.00 0.00 0.00 87 1002.0
20260901234159 83 36 4.0 8.0 0.00 0.00 0.00 86 1002.0
20260901233156 83 53 4.0 7.0 0.00 0.00 0.00 85 1002.1
20260901232156 83 16 4.0 8.0 0.00 0.00 0.00 84 1002.1
20260901231156 83 41 4.0 8.0 0.00 0.00 0.00 83 1002.0
20260901230632 83 12 4.0 9.0 0.00 0.00 0.00 83 1002.1
20260901225156 84 51 5.0 9.0 0.00 0.00 0.00 82 1002.5
20260901224156 84 27 5.0 9.0 0.00 0.00 0.00 82 1003.1
20260901223153 85 41 5.0 9.0 0.00 0.00 0.00 81 1003.2
20260901222154 85 45 5.0 8.0 0.00 0.00 0.00 78 1003.9
20260901221150 86 2 4.0 7.0 0.00 0.00 0.00 77 1005.3
20260901220300 86 41 4.0 9.0 0.00 0.00 0.00 75 1006.1
20260901215628 86 31 4.0 7.0 0.00 0.00 0.00 75 1006.8
20260901214151 86 25 4.0 9.0 0.00 0.00 0.00 76 1006.4
20260901213151 86 32 5.0 9.0 0.00 0.00 0.00 75 1006.3
20260901212151 86 50 4.0 7.0 0.00 0.00 0.00 74 1005.9
20260901211151 86 38 5.0 8.0 0.00 0.00 0.00 74 1006.2
20260901210154 86 43 4.0 9.0 0.00 0.00 0.00 75 1004.7
20260901205150 86 43 4.0 8.0 0.00 0.00 0.00 74 1005.0
20260901204150 86 79 4.0 8.0 0.00 0.00 0.00 73 1005.7
20260901203150 86 8 4.0 9.0 0.00 0.00 0.00 74 1005.8
20260901202628 86 60 5.0 9.0 0.00 0.00 0.00 71 1005.8
20260901201150 87 35 5.0 9.0 0.00 0.00 0.00 71 1007.1
20260901200150 87 34 5.0 9.0 0.00 0.00 0.00 72 1007.9
20260901195632 87 35 5.0 9.0 0.00 0.00 0.00 71 1007.7
20260901194637 87 22 6.0 11.0 0.00 0.00 0.00 71 1009.5
20260901193146 87 58 6.0 10.0 0.00 0.00 0.00 73 1009.4
20260901192147 87 22 5.0 9.0 0.00 0.00 0.00 74 1006.7
20260901191147 87 16 6.0 9.0 0.00 0.00 0.00 72 1010.2
20260901190625 87 37 5.0 9.0 0.00 0.00 0.00 72 1010.0
20260901184147 87 24 5.0 9.0 0.00 0.00 0.00 71 1011.2
20260901183145 87 41 5.0 8.0 0.00 0.00 0.00 71 1011.4
20260901182144 87 31 5.0 9.0 0.00 0.00 0.00 72 1010.4
20260901181147 88 48 5.0 9.0 0.00 0.00 0.00 72 1011.5
20260901180144 88 40 5.0 9.0 0.00 0.00 0.00 72 1013.4
20260901175630 87 37 5.0 8.0 0.00 0.00 0.00 72 1012.5
20260901174145 87 48 5.0 9.0 0.00 0.00 0.00 73 1012.2
20260901173625 87 46 5.0 10.0 0.00 0.00 0.00 74 1012.7
20260901172145 87 10 5.0 9.0 0.00 0.00 0.00 74 1012.8
20260901171144 87 29 5.0 10.0 0.00 0.00 0.00 74 1013.1
20260901170143 87 47 5.0 9.0 0.00 0.00 0.00 73 1014.9
20260901165142 87 38 5.0 9.0 0.00 0.00 0.00 74 1012.0
20260901164143 87 27 5.0 9.0 0.00 0.00 0.00 74 1012.2
20260901163143 87 36 5.0 9.0 0.00 0.00 0.00 73 1013.2
20260901162143 87 5 5.0 8.0 0.00 0.00 0.00 74 1013.7
20260901161144 87 42 5.0 9.0 0.00 0.00 0.00 74 1011.8
20260901160141 87 35 5.0 9.0 0.00 0.00 0.00 75 1013.9
20260901155615 87 32 4.0 9.0 0.00 0.00 0.00 76 1014.5
20260901154139 86 31 5.0 10.0 0.00 0.00 0.00 76 1009.6
20260901153139 87 44 5.0 9.0 0.00 0.00 0.00 75 1012.8
20260901152139 87 27 5.0 8.0 0.00 0.00 0.00 76 1013.3
20260901151615 87 38 4.0 8.0 0.00 0.00 0.00 76 1013.4
20260901150140 86 41 5.0 9.0 0.00 0.01 0.00 76 1013.0
20260901145623 85 32 5.0 9.0 0.00 0.10 0.00 77 1013.1
20260901144140 85 32 4.0 6.0 0.00 0.10 0.00 78 1007.4
20260901143136 85 17 3.0 6.0 0.00 0.10 0.00 78 1009.3
20260901142133 85 23 4.0 7.0 0.00 0.10 0.00 79 1008.5
20260901141134 85 11 3.0 7.0 0.00 0.10 0.00 81 1012.1
20260901140134 84 50 3.0 6.0 0.00 0.10 0.00 83 1007.7
20260901135133 84 41 3.0 6.0 0.00 0.10 0.00 83 1007.6
20260901134134 84 43 3.0 6.0 0.00 0.10 0.00 84 1006.4
20260901133611 85 35 3.0 6.0 0.00 0.10 0.00 87 1007.5
20260901132133 84 35 2.0 4.0 0.00 0.10 0.00 90 1006.7
20260901131132 83 17 2.0 4.0 0.00 0.10 0.00 91 1006.0
20260901130132 83 31 2.0 4.0 0.00 0.10 0.00 92 1005.0
20260901125132 83 19 2.0 5.0 0.00 0.10 0.00 93 1004.4
20260901124133 83 33 2.0 5.0 0.00 0.10 0.00 93 1004.8
20260901123611 82 31 2.0 5.0 0.00 0.10 0.00 94 1005.7
20260901122609 82 54 2.0 4.0 0.00 0.10 0.00 95 1005.2
20260901121133 81 12 2.0 5.0 0.00 0.10 0.00 95 1004.6
20260901120129 81 46 2.0 4.0 0.00 0.10 0.00 96 1004.5
20260901115126 80 21 2.0 4.0 0.00 0.10 0.00 96 1003.8
20260901114125 80 25 2.0 3.0 0.00 0.10 0.00 96 1003.3
20260901113126 79 42 2.0 3.0 0.00 0.10 0.00 96 1002.7
20260901112126 79 26 2.0 3.0 0.00 0.10 0.00 96 1002.1
20260901111126 79 29 2.0 3.0 0.00 0.10 0.00 96 1001.7
20260901110126 79 22 2.0 4.0 0.00 0.10 0.00 96 1001.6
20260901105126 79 347 2.0 2.0 0.00 0.10 0.00 96 1001.6
20260901104126 79 2 2.0 4.0 0.00 0.10 0.00 96 1001.5
20260901103111 79 349 2.0 3.0 0.00 0.10 0.00 96 1001.5
20260901102111 79 40 1.0 3.0 0.00 0.10 0.00 96 1001.3
20260901101547 79 9 2.0 3.0 0.00 0.10 0.00 96 1001.6
20260901100547 79 30 2.0 2.0 0.00 0.10 0.00 96 1001.7